Погода Ростов Великий

Погода Ростов Великий : погода сейчас, прогноз погоды и архив. Всё, что Вы хотите узнать о погоде Ростов Великий!

Хотите узнать прогноз погоды Ростов Великий? Тогда Вам сюда: Погода Ростов Великий

Поиск расширенной информации на нашем сайте:

Другие новости

Новости СМИ2

Главная страница сайта

Новости сайта

03.07.2017

Напоминаем, что на нашем специализированном сайте Метеоцентр.Азия вы можете получить высокодетализированные автоматические прогнозы погоды по пунктам России, СНГ и мира в авиационном формате (включающие направление и скорость ветра, видимость, явления погоды, количество и форму облачности, нижнюю и верхнюю границу облачности).


Погода Ростов Великий - сегодня

Время (UTC), дата Ветер
(°,м/с) 
Видим.   Явления Облачность Т
(°С)
Тd
(°С)
f(%) Тe
(°С)
Pmin
(гПа)
dP
(гПа)
Po
(мм)
O2
(г/м3)
Тmin Tmax R s Состояние
почвы
03 21.09.17 360 (С) 5000 м  дымка  ясно 
+4.3 +3.9 97 +5  1029.3  1.3  763  302  +4.2        влажная 
06 21.09.17 100 (В) 7000 м  дымка  9/3 1000 м средняя, верхняя 
[Sc|Ac trans|Ci]
+8.9 +8.2 95 +10  1030.1  763  296           
09 21.09.17 140 (ЮВ) 28000 м    8/4 600 м средняя, верхняя 
[Cu Sc|Ac trans|Ci fib]
+14.1 +9 71 +15  1030.2  0.3  764  291           
12 21.09.17 120 (ЮВ) 30000 м    8/3 600 м средняя, верхняя 
[Cu Sc|Ac trans|Cc]
+16.2 +8.2 59 +17  1030.3  0.1  764  289           
15 21.09.17 090 (В) 30000 м    8/8 600 м кучево-дожд. 
[Cb cap]
+13.7 +8.1 69 +14  1030.8  0.5  764  292    +16.6       
18 21.09.17 080 (В) 50000 м    ясно 
+9.7 +6.8 82 +10  1032.8  1.7  765  297           
21 21.09.17 080 (В) 30000 м    ясно 
+7.7 +5.6 87 +8  1034.5  1.7  767  300           
00 22.09.17 080 (В) 30000 м    10/10 600 м 
[Sc]
+8 +6.3 89 +8  1035.6  767  299           
03 22.09.17 080 (В) 30000 м    8/6 600 м верхняя 
[Sc|Ci fib]
+6.1 +4 86 +6  1036.7  768  302  +6.1         
06 22.09.17 110 (В) 50000 м    3/3 1000 м 
[Sc]
+7.5 +3.7 77 +7  1037.2  0.6  768  301  +4.9         
09 22.09.17 110 (В) 50000 м    4/3 1000 м средняя 
[Sc|Ac trans]
+11.4 +3.6 59 +11  1036.7  -0.4  768  297           
12 22.09.17 120 (ЮВ) 50000 м    ясно 
+13.2 +3.4 51 +13  1036  -0.6  768  295           
15 22.09.17 110 (В) 50000 м    ясно 
+11.7 +4.6 62 +12  1035.4  -0.7  767  296    +13.3       
18 22.09.17 110 (В) 50000 м    ясно 
+8.5 +4.9 78 +9  1035.9  0.4  768  299           
21 22.09.17 160 (Ю) 50000 м    ясно 
+7.2 +4.3 82 +7  1036.7  0.7  768  301           
00 23.09.17 160 (Ю) 50000 м    ясно 
+5.3 +3.8 90 +6  1037.4  0.5  768  303           
03 23.09.17 тихо ()   50000 м    3/3 1000 м 
[Sc]
+0.4 -0.2 96 1037.9  0.4  769  309  +0.4        влажная 
06 23.09.17 140 (ЮВ) 50000 м    1/0 верхняя 
[Ci fib]
+8 +4.8 80 +9  1038.1  0.5  769  300  +0.3         
09 23.09.17 130 (ЮВ) 50000 м    1/0 верхняя 
[Ci fib]
+13.4 +5.9 60 +14  1037.8  769  295           
12 23.09.17 160 (Ю) 50000 м    1/0 верхняя 
[Ci fib]
+15.7 +5.4 50 +17  1036.8  -1  768  292           
15 23.09.17 100 (В) 50000 м    3/0 верхняя 
[Ci fib]
+12.9 +6.7 66 +14  1036.1  -0.8  768  294    +15.9       
18 23.09.17 тихо ()   50000 м    ясно 
+5.7 +4.8 94 +6  1037.1  0.6  768  303           
21 23.09.17 тихо ()   50000 м    ясно 
+3.4 +2.9 97 +3  1038.1  0.9  769  306           
00 24.09.17 350 (С) 50000 м    ясно 
+2 +1.6 97 +3  1038.8  0.6  769  308           
03 24.09.17 340 (С) 3000 м  дымка  ясно 
+0.7 +0.4 98 +1  1039.4  -10.7             
Время (UTC), дата Ветер
(°,м/с) 
Видим.   Явления Облачность Т
(°С)
Тd
(°С)
f(%) Тe
(°С)
Pmin
(гПа)
dP
(гПа)
Po
(мм)
O2
(г/м3)
Тmin Tmax R s Состояние
почвы

Для получения пояснительной информации подведите курсор к названию столбца.

ПОГОДА Ростов Великий - архив

Всё, что Вы хотите узнать о погоде Ростов Великий - удобно и подробно!

Выберите нужную дату (начиная с 1 января 2015* года) и нажмите кнопку "Найти".
Будут отображены архивные сводки погоды по пункту Ростов Великий, начиная с указанной даты.


Отображать данные в формате CSV (для использования в таблицах Excel)


Внимание! Наш архив погоды предназначен исключительно для личного некоммерческого использования в познавательных целях. Если Вам необходимы официальные справки о состоянии погоды (для производственных, юридических, коммерческих и т.п. целей), обращайтесь в органы Росгидромета.

*Примечание: данная дата относится к архиву по метеостанциям СССР (Россия, СНГ, Балтия).
Архив по метеостанциям Зарубежной Европы и Азии (кроме Китая) хранится 10 дней, по другим регионам земного шара (Китай, Африка, Америка, Австралия, Океания) - 1 день.

Ростов Великий - район местоположения метеостанции


Название, широта, долгота, высота метеостанции:
Ростов Великий 57.2°ш. 39.4°д. 101 м над ур. моря [Российская Федерация]

Дополнительная информация

В oтличие oт бoльшинства пoгoдных сайтoв мы публикуем пoдрoбную метеoинфoрмацию в детальнoм прoфессиoнальнoм фoрмате.

Характеристики температуры и влажнoсти вoздуха измеряются на высoте 2 м в тени вдали oт зданий и деревьев.
Скoрoсть ветра измеряется на высoте 10 м (на урoвне рoста челoвека скoрoсть ветра ниже в 1.5-2 раза). Если метеoстанция нахoдится в гoрoде или в лесу, тo скoрoсть ветра занижена на 2-4 м/с пo сравнению с oткрытым местoм. Скoрoсть ветра над акватoриями крупных рек и oзёр, а также на вершинах хoлмoв на 2-5 м/с выше, чем в oбычных услoвиях.
Атмoсфернoе давление в разных тoчках местнoсти мoжет значительнo oтличаться oт давления на метеoстанции, в зависимoсти oт услoвий рельефа (при пoдъёме на 10 м давление пoнижается примернo на 1 мм рт.ст.).